Location: Vigo di Fassa
(46.4167°N, 11.6667°E)
Time: 18:36:24
(UTC+00:00)

Cosmos 864 Rocket - Pass Details

Date: 03 March 2021
Orbit: 954 x 991 km, 82.9° (Epoch: 15 April)

Event Time Altitude Azimuth Distance (km) Brightness Sun altitude
Rises 19:04:24 0° 183° (S) 3,622 7.4 -21.7°
Reaches altitude 10° 19:06:52 10° 182° (S) 2,683 6.7 -22.1°
Maximum altitude 19:13:01 82° 97° (E) 980 4.3 -23.1°
Drops below altitude 10° 19:19:15 10° 10° (N) 2,724 6.9 -24.2°
Sets 19:21:47 0° 10° (N) 3,681 7.6 -24.6°
